STARLINK-11499, 62279

Orbit data source: Space-Track

STARLINK-11499, 62279 is a payload satellite owned by SpaceX/Seattle (US) in LEO that was launched on Sun, 08 Dec 2024 UTC via an FALCON 9 launch vehicle from the Air Force Eastern Test Range (AFETR). Payload-class satellites include a variety of spacecraft equipped with specific instruments for various scientific and technological missions. These include communications satellites like Starlink; space stations such as the ISS; scientific satellites like the Hubble; Earth observation satellites from companies like Planet Labs, Umbra, and HawkEye 360; GPS; miniature CubeSats for education and research; and military/defense satellites.

Loading next visibility...
Identifier
62279, 2024-237N
Orbit
LEO
Country
Flag of USUS
Related business
Manufacturer
SpaceX/Seattle
Mission
Operational Commercial Communications
Bus & Motor
STARLINK V2MD, Unknown motor
Mass
960 kg wet, ~910 kg dry
Launch date (UTC)
2024-12-08 (2 years ago)
Launch vehicle
FALCON 9
Launch site
Air Force Eastern Test Range (AFETR)
Object type
Payload
Rocket body
Debris
Shape & HBR
Box + 2 Pan, 18.1 m
Radar Cross Section
36.964 m², Large (>1 m²)

Expand to show TLE details & history
Last TLE update: 13 hours ago

TLE from 13 hours ago
0 STARLINK-11499
1 62279U 24237N   26171.30434978  .00146954  00000-0  11235-2 0  9992
2 62279  43.0030 158.7293 0001329 304.5079  55.5663 15.70947997 89113
Epoch: 2026-06-20T07:18Z
TLE epoch observation values (Epoch: 2026-06-20T07:18:15.820Z)
Latitude
-0.00005°
Longitude
140.64244°
Altitude
355.452 km
Speed
7.698 km/s
True Right ascension
10h 34m 55s
True Declination
0° 00' 00"
Sunlit
Object was in daylight at epoch
Visualization orbit readout
Latitude
Unknown
Longitude
Unknown
Altitude
Unknown
Speed
Unknown
Apparent Right ascension
Unknown
Apparent Declination
Unknown
Sunlit
N/A
Visualization observer readout
Local Sidereal Time
07:24:13
Azimuth
Unknown
Elevation
Unknown
Doppler factor
Unknown
Orbital elements
Apogee altitude
359.063 km
Perigee altitude
357.272 km
Semi-major axis
6,736.305 km
Eccentricity
0.00013
Inclination
43.003°
RAAN
158.7293°
Arg. of periapsis
304.5079°
True anomaly
55.57886°
Mean anomaly
55.5663°
Eccentric anomaly
55.57258°
Mean motion
3.92564 °/min
Orbital period
91.7 mins
BSTAR
0.0011235
Loading maneuver chart data...
Computing Atmospheric mass density...
Loading historical data...
Loading historical data...
Loading historical data...
Loading historical data...
Loading historical data...
Loading historical data...
Loading historical data...

Documentation

Showing up to 5 results
|